Location: Newark
(45.5167°N, 11.1667°E)
Time: 17:23:30
(UTC+00:00)

Explorer 7 - Pass Details

Date: 16 December 2019
Orbit: 485 x 679 km, 50.3° (Epoch: 24 January)

Event Time Altitude Azimuth Distance (km) Brightness Sun altitude
Rises 16:59:59 0° 291° (WNW) 3,022 11.4 -14.6°
Reaches altitude 10° 17:02:23 10° 295° (WNW) 2,116 10.5 -15.0°
Maximum altitude 17:07:15 59° 15° (NNE) 783 7.4 -15.8°
Enters shadow 17:09:44 27° 85° (E) 1,276 8.1 -16.2°
Drops below altitude 10° 17:12:04 10° 95° (E) 2,097 - -16.6°
Sets 17:14:26 0° 100° (E) 2,993 - -17.0°
